Flight Track Log - Related Links

Times and Time Zones

All times are in EDT time to prevent confusion due to time zone crossing. See the EJA941 flight status page for this flight to view local times or setup timezone preferences in your user account.

Time Position Orientation Groundspeed Altitude Reporting Facility
EDT Latitude Longitude Course Direction KTS MPH feet Rate Location/Type
Fri 06:22:55 PM 35.2475 -120.6617 302° West 165 190 1,600  Level Los Angeles Center
Fri 06:24:04 PM 35.2778 -120.7200 302° West 213 245 4,200 2,794 Climbing Los Angeles Center
Fri 06:25:06 PM 35.2328 -120.7803 228° Southwest 261 300 7,700 3,048 Climbing Los Angeles Center
Fri 06:26:08 PM 35.1753 -120.7156 137° Southeast 293 337 10,500 2,129 Climbing Los Angeles Center
Fri 06:27:10 PM 35.1189 -120.6231 127° Southeast 330 380 12,100 1,210 Climbing Los Angeles Center
Fri 06:28:12 PM 35.0556 -120.5236 128° Southeast 360 414 13,000 435 Climbing Los Angeles Center
Fri 06:29:14 PM 34.9892 -120.4172 127° Southeast 388 447 13,000  Level Los Angeles Center
Fri 06:30:16 PM 34.9217 -120.3081 127° Southeast 398 458 13,000  Level Los Angeles Center
Fri 06:31:18 PM 34.8539 -120.1981 127° Southeast 402 463 13,000  Level Los Angeles Center
Fri 06:32:20 PM 34.7794 -120.0825 128° Southeast 395 455 13,000  Level Los Angeles Center
Fri 06:33:23 PM 34.7153 -119.9778 127° Southeast 389 448 13,000  Level Los Angeles Center
Fri 06:34:25 PM 34.6358 -119.8536 128° Southeast 388 447 13,000  Level Los Angeles Center
Fri 06:35:27 PM 34.5664 -119.7475 128° Southeast 384 442 13,000  Level Los Angeles Center
Fri 06:36:29 PM 34.5011 -119.6447 128° Southeast 385 443 13,000  Level Los Angeles Center
Fri 06:37:31 PM 34.4353 -119.5425 128° Southeast 385 443 13,000  Level Los Angeles Center
Fri 06:38:33 PM 34.3694 -119.4411 128° Southeast 385 443 13,000  Level Los Angeles Center
Fri 06:39:35 PM 34.3042 -119.3367 127° Southeast 387 445 13,000  Level Los Angeles Center
Fri 06:40:37 PM 34.2394 -119.2350 128° Southeast 383 441 13,000 -768 Level Los Angeles Center
Fri 06:41:40 PM 34.1661 -119.1228 128° Southeast 344 396 11,400 -960 Descending Los Angeles Center
Fri 06:42:42 PM 34.1131 -119.0411 128° Southeast 314 361 11,000 -194 Descending Los Angeles Center
Fri 06:43:44 PM 34.0881 -118.9450 107° East 304 350 11,000 -435 Level Los Angeles Center
Fri 06:44:46 PM 34.0625 -118.8486 108° East 303 349 10,100 -484 Descending Los Angeles Center
Fri 06:45:48 PM 34.0389 -118.7572 107° East 300 345 10,000 -194 Descending Los Angeles Center
Fri 06:46:50 PM 34.0272 -118.6336 96° East 300 345 9,700 -871 Descending Los Angeles Center
Fri 06:47:52 PM 34.0178 -118.5372 97° East 292 336 8,200 -1,161 Descending Los Angeles Center
Fri 06:48:54 PM 34.0103 -118.4456 96° East 271 312 7,300 -1,065 Descending Los Angeles Center
Fri 06:49:56 PM 34.0225 -118.3636 80° East 257 296 6,000 -1,248 Descending Los Angeles Center
Fri 06:50:59 PM 34.0306 -118.2872 83° East 238 274 4,700 -1,248 Descending Los Angeles Center
Fri 06:52:01 PM 34.0358 -118.2200 85° East 215 247 3,400 -823 Descending Los Angeles Center
Fri 06:53:03 PM 33.9892 -118.2106 170° South 196 226 3,000 -339 Descending Los Angeles Center
Fri 06:54:05 PM 33.9650 -118.2756 246° West 187 215 2,700 -677 Descending Los Angeles Center
Fri 06:55:07 PM 33.9606 -118.3281 264° West 168 193 1,600 -838 Descending Los Angeles Center
Fri 06:56:21 PM 33.9550 -118.3697 261° West 141 162 800 -613 Descending Los Angeles Center
Fri 06:57:24 PM 33.9497 -118.4228 263° West 130 150 200 -571 Descending Los Angeles Center
Fri 06:59:00 PM 33.9425 -118.4081 220° Southwest  Level Estimated

Login

Don't have an account? Register now (free) for customized features, flight alerts, and more!